owner,sensor,date,latitude,longitude,air_temperature,qcFlag 
NDBC,ioos:station:wmo:42056:1,2017-08-01T00:40:00Z,19.8020,-84.8570,29.9,1111122 
NDBC,ioos:station:wmo:42056:1,2017-08-01T01:40:00Z,19.8020,-84.8570,29.8,1111122 
NDBC,ioos:station:wmo:42056:1,2017-08-01T02:40:00Z,19.8020,-84.8570,29.8,1111122 
NDBC,ioos:station:wmo:42056:1,2017-08-01T03:40:00Z,19.8020,-84.8570,29.9,1111122 
NDBC,ioos:station:wmo:42056:1,2017-08-01T04:40:00Z,19.8020,-84.8570,30.0,1111122 
NDBC,ioos:station:wmo:42056:1,2017-08-01T05:40:00Z,19.8020,-84.8570,29.7,1111122 
NDBC,ioos:station:wmo:42056:1,2017-08-01T06:40:00Z,19.8020,-84.8570,29.7,1111122 
NDBC,ioos:station:wmo:42056:1,2017-08-01T07:40:00Z,19.8020,-84.8570,29.7,1111122 
NDBC,ioos:station:wmo:42056:1,2017-08-01T08:40:00Z,19.8020,-84.8570,29.7,1111122 
NDBC,ioos:station:wmo:42056:1,2017-08-01T09:40:00Z,19.8020,-84.8570,29.8,1111122 
NDBC,ioos:station:wmo:42056:1,2017-08-01T10:40:00Z,19.8020,-84.8570,29.8,1111122 
NDBC,ioos:station:wmo:42056:1,2017-08-01T11:40:00Z,19.8020,-84.8570,29.7,1111122 
NDBC,ioos:station:wmo:42056:1,2017-08-01T12:40:00Z,19.8020,-84.8570,29.7,1111122 
NDBC,ioos:station:wmo:42056:1,2017-08-01T13:40:00Z,19.8020,-84.8570,29.9,1111122 
NDBC,ioos:station:wmo:42056:1,2017-08-01T14:40:00Z,19.8020,-84.8570,29.9,1111122 
NDBC,ioos:station:wmo:42056:1,2017-08-01T15:40:00Z,19.8020,-84.8570,30.0,1111122 
NDBC,ioos:station:wmo:42056:1,2017-08-01T16:40:00Z,19.8020,-84.8570,30.0,1111122 
NDBC,ioos:station:wmo:42056:1,2017-08-01T17:40:00Z,19.8020,-84.8570,30.1,1111122 
NDBC,ioos:station:wmo:42056:1,2017-08-01T18:50:00Z,19.8020,-84.8570,30.0,1111122 
NDBC,ioos:station:wmo:42056:1,2017-08-01T19:50:00Z,19.8020,-84.8570,29.5,1111122 
NDBC,ioos:station:wmo:42056:1,2017-08-01T20:50:00Z,19.8020,-84.8570,30.1,1111122 
NDBC,ioos:station:wmo:42056:1,2017-08-01T22:00:00Z,19.8020,-84.8570,30.1,1111122 
NDBC,ioos:station:wmo:42056:1,2017-08-01T22:50:00Z,19.8020,-84.8570,30.2,1111122 
NDBC,ioos:station:wmo:42056:1,2017-08-02T01:50:00Z,19.8020,-84.8570,30.1,1111122 
NDBC,ioos:station:wmo:42056:1,2017-08-02T02:40:00Z,19.8020,-84.8570,29.8,1111122 
NDBC,ioos:station:wmo:42056:1,2017-08-02T03:40:00Z,19.8020,-84.8570,29.6,1111122 
NDBC,ioos:station:wmo:42056:1,2017-08-02T04:40:00Z,19.8020,-84.8570,29.9,1111122 
NDBC,ioos:station:wmo:42056:1,2017-08-02T05:50:00Z,19.8020,-84.8570,29.2,1111122 
NDBC,ioos:station:wmo:42056:1,2017-08-02T06:40:00Z,19.8020,-84.8570,29.4,1111122 
NDBC,ioos:station:wmo:42056:1,2017-08-02T07:50:00Z,19.8020,-84.8570,29.6,1111122 
NDBC,ioos:station:wmo:42056:1,2017-08-02T08:50:00Z,19.8020,-84.8570,29.6,1111122 
NDBC,ioos:station:wmo:42056:1,2017-08-02T09:50:00Z,19.8020,-84.8570,29.6,1111122 
NDBC,ioos:station:wmo:42056:1,2017-08-02T10:50:00Z,19.8020,-84.8570,29.5,1111122 
NDBC,ioos:station:wmo:42056:1,2017-08-02T11:50:00Z,19.8020,-84.8570,29.5,1111122 
NDBC,ioos:station:wmo:42056:1,2017-08-02T12:50:00Z,19.8020,-84.8570,29.7,1111122 
NDBC,ioos:station:wmo:42056:1,2017-08-02T13:50:00Z,19.8020,-84.8570,29.9,1111122 
NDBC,ioos:station:wmo:42056:1,2017-08-02T14:50:00Z,19.8020,-84.8570,30.0,1111122 
NDBC,ioos:station:wmo:42056:1,2017-08-02T15:50:00Z,19.8020,-84.8570,30.1,1111122 
NDBC,ioos:station:wmo:42056:1,2017-08-02T16:50:00Z,19.8020,-84.8570,30.1,1111122 
NDBC,ioos:station:wmo:42056:1,2017-08-02T17:50:00Z,19.8020,-84.8570,30.2,1111122 
NDBC,ioos:station:wmo:42056:1,2017-08-02T18:40:00Z,19.8020,-84.8570,30.1,1111122 
NDBC,ioos:station:wmo:42056:1,2017-08-02T19:40:00Z,19.8020,-84.8570,30.2,1111122 
NDBC,ioos:station:wmo:42056:1,2017-08-02T20:40:00Z,19.8020,-84.8570,30.3,1111122 
NDBC,ioos:station:wmo:42056:1,2017-08-03T00:00:00Z,19.8020,-84.8570,30.3,1111122 
NDBC,ioos:station:wmo:42056:1,2017-08-03T01:00:00Z,19.8020,-84.8570,30.2,1111122 
NDBC,ioos:station:wmo:42056:1,2017-08-03T03:20:00Z,19.8020,-84.8570,30.2,1111122 
NDBC,ioos:station:wmo:42056:1,2017-08-03T05:30:00Z,19.8020,-84.8570,30.0,1111122 
NDBC,ioos:station:wmo:42056:1,2017-08-03T07:30:00Z,19.8020,-84.8570,29.8,1111122 
NDBC,ioos:station:wmo:42056:1,2017-08-03T08:50:00Z,19.8020,-84.8570,29.7,1111122 
NDBC,ioos:station:wmo:42056:1,2017-08-03T09:50:00Z,19.8020,-84.8570,29.6,1111122 
NDBC,ioos:station:wmo:42056:1,2017-08-03T11:00:00Z,19.8020,-84.8570,29.5,1111122 
NDBC,ioos:station:wmo:42056:1,2017-08-03T11:50:00Z,19.8020,-84.8570,29.7,1111122 
NDBC,ioos:station:wmo:42056:1,2017-08-03T12:50:00Z,19.8020,-84.8570,29.9,1111122 
NDBC,ioos:station:wmo:42056:1,2017-08-03T13:40:00Z,19.8020,-84.8570,30.0,1111122 
NDBC,ioos:station:wmo:42056:1,2017-08-03T14:40:00Z,19.8020,-84.8570,30.1,1111122 
NDBC,ioos:station:wmo:42056:1,2017-08-03T15:40:00Z,19.8020,-84.8570,30.2,1111122 
NDBC,ioos:station:wmo:42056:1,2017-08-03T16:50:00Z,19.8020,-84.8570,30.3,1111122 
NDBC,ioos:station:wmo:42056:1,2017-08-03T18:00:00Z,19.8020,-84.8570,30.4,1111122 
NDBC,ioos:station:wmo:42056:1,2017-08-04T00:00:00Z,19.8020,-84.8570,30.5,1111122 
NDBC,ioos:station:wmo:42056:1,2017-08-04T08:10:00Z,19.8020,-84.8570,29.8,1111122 
NDBC,ioos:station:wmo:42056:1,2017-08-04T11:10:00Z,19.8020,-84.8570,30.0,1111122 
NDBC,ioos:station:wmo:42056:1,2017-08-04T21:50:00Z,19.8020,-84.8570,29.1,1111122 
NDBC,ioos:station:wmo:42056:1,2017-08-04T22:50:00Z,19.8020,-84.8570,29.6,1111122 
NDBC,ioos:station:wmo:42056:1,2017-08-05T05:40:00Z,19.8020,-84.8570,30.1,1111122 
NDBC,ioos:station:wmo:42056:1,2017-08-05T06:40:00Z,19.8020,-84.8570,30.1,1111122 
NDBC,ioos:station:wmo:42056:1,2017-08-05T07:40:00Z,19.8020,-84.8570,30.0,1111122 
NDBC,ioos:station:wmo:42056:1,2017-08-05T08:40:00Z,19.8020,-84.8570,30.0,1111122 
NDBC,ioos:station:wmo:42056:1,2017-08-05T09:50:00Z,19.8020,-84.8570,29.9,1111122 
NDBC,ioos:station:wmo:42056:1,2017-08-05T10:50:00Z,19.8020,-84.8570,29.9,1111122 
NDBC,ioos:station:wmo:42056:1,2017-08-05T11:50:00Z,19.8020,-84.8570,29.9,1111122 
NDBC,ioos:station:wmo:42056:1,2017-08-05T12:40:00Z,19.8020,-84.8570,30.1,1111122 
NDBC,ioos:station:wmo:42056:1,2017-08-05T13:50:00Z,19.8020,-84.8570,30.3,1111122 
NDBC,ioos:station:wmo:42056:1,2017-08-05T14:50:00Z,19.8020,-84.8570,30.5,1111122 
NDBC,ioos:station:wmo:42056:1,2017-08-05T15:50:00Z,19.8020,-84.8570,30.5,1111122 
NDBC,ioos:station:wmo:42056:1,2017-08-05T16:50:00Z,19.8020,-84.8570,30.5,1111122 
NDBC,ioos:station:wmo:42056:1,2017-08-05T17:50:00Z,19.8020,-84.8570,30.5,1111122 
NDBC,ioos:station:wmo:42056:1,2017-08-05T18:50:00Z,19.8020,-84.8570,30.6,1111122 
NDBC,ioos:station:wmo:42056:1,2017-08-05T19:50:00Z,19.8020,-84.8570,30.6,1111122 
NDBC,ioos:station:wmo:42056:1,2017-08-05T20:50:00Z,19.8020,-84.8570,30.6,1111122 
NDBC,ioos:station:wmo:42056:1,2017-08-05T22:00:00Z,19.8020,-84.8570,30.5,1111122 
NDBC,ioos:station:wmo:42056:1,2017-08-05T22:40:00Z,19.8020,-84.8570,30.5,1111122 
NDBC,ioos:station:wmo:42056:1,2017-08-06T03:40:00Z,19.8020,-84.8570,30.4,1111122 
NDBC,ioos:station:wmo:42056:1,2017-08-06T04:40:00Z,19.8020,-84.8570,30.2,1111122 
NDBC,ioos:station:wmo:42056:1,2017-08-06T05:40:00Z,19.8020,-84.8570,30.2,1111122 
NDBC,ioos:station:wmo:42056:1,2017-08-06T06:40:00Z,19.8020,-84.8570,30.0,1111122 
NDBC,ioos:station:wmo:42056:1,2017-08-06T07:40:00Z,19.8020,-84.8570,29.9,1111122 
NDBC,ioos:station:wmo:42056:1,2017-08-06T08:40:00Z,19.8020,-84.8570,29.9,1111122 
NDBC,ioos:station:wmo:42056:1,2017-08-06T09:50:00Z,19.8020,-84.8570,29.9,1111122 
NDBC,ioos:station:wmo:42056:1,2017-08-06T10:40:00Z,19.8020,-84.8570,29.9,1111122 
NDBC,ioos:station:wmo:42056:1,2017-08-06T11:40:00Z,19.8020,-84.8570,29.9,1111122 
NDBC,ioos:station:wmo:42056:1,2017-08-06T12:40:00Z,19.8020,-84.8570,30.1,1111122 
NDBC,ioos:station:wmo:42056:1,2017-08-06T13:40:00Z,19.8020,-84.8570,30.1,1111122 
NDBC,ioos:station:wmo:42056:1,2017-08-06T14:40:00Z,19.8020,-84.8570,30.3,1111122 
NDBC,ioos:station:wmo:42056:1,2017-08-06T15:40:00Z,19.8020,-84.8570,30.4,1111122 
NDBC,ioos:station:wmo:42056:1,2017-08-06T16:40:00Z,19.8020,-84.8570,30.2,1111122 
NDBC,ioos:station:wmo:42056:1,2017-08-06T17:40:00Z,19.8020,-84.8570,30.4,1111122 
NDBC,ioos:station:wmo:42056:1,2017-08-06T18:40:00Z,19.8020,-84.8570,30.4,1111122 
NDBC,ioos:station:wmo:42056:1,2017-08-06T19:40:00Z,19.8020,-84.8570,29.9,1111122 
NDBC,ioos:station:wmo:42056:1,2017-08-06T20:40:00Z,19.8020,-84.8570,30.5,1111122 
NDBC,ioos:station:wmo:42056:1,2017-08-06T21:40:00Z,19.8020,-84.8570,30.4,1111122 
NDBC,ioos:station:wmo:42056:1,2017-08-06T22:40:00Z,19.8020,-84.8570,28.7,1111122 
NDBC,ioos:station:wmo:42056:1,2017-08-06T23:40:00Z,19.8020,-84.8570,30.1,1111122 
NDBC,ioos:station:wmo:42056:1,2017-08-07T00:40:00Z,19.8020,-84.8570,26.4,1111122 
NDBC,ioos:station:wmo:42056:1,2017-08-07T01:40:00Z,19.8020,-84.8570,28.4,1111122 
NDBC,ioos:station:wmo:42056:1,2017-08-07T02:40:00Z,19.8020,-84.8570,29.3,1111122 
NDBC,ioos:station:wmo:42056:1,2017-08-07T03:40:00Z,19.8020,-84.8570,29.2,1111122 
NDBC,ioos:station:wmo:42056:1,2017-08-07T04:40:00Z,19.8020,-84.8570,29.0,1111122 
NDBC,ioos:station:wmo:42056:1,2017-08-07T05:40:00Z,19.8020,-84.8570,28.4,1111122 
NDBC,ioos:station:wmo:42056:1,2017-08-07T06:40:00Z,19.8020,-84.8570,28.1,1111122 
NDBC,ioos:station:wmo:42056:1,2017-08-07T07:40:00Z,19.8020,-84.8570,28.3,1111122 
NDBC,ioos:station:wmo:42056:1,2017-08-07T08:40:00Z,19.8020,-84.8570,28.3,1111122 
NDBC,ioos:station:wmo:42056:1,2017-08-07T09:40:00Z,19.8020,-84.8570,28.4,1111122 
NDBC,ioos:station:wmo:42056:1,2017-08-07T10:40:00Z,19.8020,-84.8570,29.0,1111122 
NDBC,ioos:station:wmo:42056:1,2017-08-07T11:40:00Z,19.8020,-84.8570,28.7,1111122 
NDBC,ioos:station:wmo:42056:1,2017-08-07T12:40:00Z,19.8020,-84.8570,28.1,1111122 
NDBC,ioos:station:wmo:42056:1,2017-08-07T13:40:00Z,19.8020,-84.8570,27.0,1111122 
NDBC,ioos:station:wmo:42056:1,2017-08-07T14:40:00Z,19.8020,-84.8570,27.0,1111122 
NDBC,ioos:station:wmo:42056:1,2017-08-07T15:40:00Z,19.8020,-84.8570,26.6,1111122 
NDBC,ioos:station:wmo:42056:1,2017-08-07T16:40:00Z,19.8020,-84.8570,27.0,1111122 
NDBC,ioos:station:wmo:42056:1,2017-08-07T17:40:00Z,19.8020,-84.8570,28.2,1111122 
NDBC,ioos:station:wmo:42056:1,2017-08-07T18:40:00Z,19.8020,-84.8570,26.9,1111122 
NDBC,ioos:station:wmo:42056:1,2017-08-07T19:40:00Z,19.8020,-84.8570,28.1,1111122 
NDBC,ioos:station:wmo:42056:1,2017-08-07T20:40:00Z,19.8020,-84.8570,28.4,1111122 
NDBC,ioos:station:wmo:42056:1,2017-08-07T21:40:00Z,19.8020,-84.8570,28.1,1111122 
NDBC,ioos:station:wmo:42056:1,2017-08-07T22:40:00Z,19.8020,-84.8570,27.7,1111122 
NDBC,ioos:station:wmo:42056:1,2017-08-07T23:40:00Z,19.8020,-84.8570,27.5,1111122 
NDBC,ioos:station:wmo:42056:1,2017-08-08T00:40:00Z,19.8020,-84.8570,28.2,1111122 
NDBC,ioos:station:wmo:42056:1,2017-08-08T01:40:00Z,19.8020,-84.8570,29.3,1111122 
NDBC,ioos:station:wmo:42056:1,2017-08-08T02:40:00Z,19.8020,-84.8570,29.2,1111122 
NDBC,ioos:station:wmo:42056:1,2017-08-08T03:40:00Z,19.8020,-84.8570,27.0,1111122 
NDBC,ioos:station:wmo:42056:1,2017-08-08T04:40:00Z,19.8020,-84.8570,27.0,1111122 
NDBC,ioos:station:wmo:42056:1,2017-08-08T05:40:00Z,19.8020,-84.8570,25.6,1111122 
NDBC,ioos:station:wmo:42056:1,2017-08-08T06:40:00Z,19.8020,-84.8570,27.1,1111122 
NDBC,ioos:station:wmo:42056:1,2017-08-08T07:40:00Z,19.8020,-84.8570,28.6,1111122 
NDBC,ioos:station:wmo:42056:1,2017-08-08T08:30:00Z,19.8020,-84.8570,28.7,1111122 
NDBC,ioos:station:wmo:42056:1,2017-08-08T09:40:00Z,19.8020,-84.8570,29.4,1111122 
NDBC,ioos:station:wmo:42056:1,2017-08-08T10:40:00Z,19.8020,-84.8570,29.6,1111122 
NDBC,ioos:station:wmo:42056:1,2017-08-08T11:40:00Z,19.8020,-84.8570,29.6,1111122 
NDBC,ioos:station:wmo:42056:1,2017-08-08T12:40:00Z,19.8020,-84.8570,29.6,1111122 
NDBC,ioos:station:wmo:42056:1,2017-08-08T13:40:00Z,19.8020,-84.8570,29.6,1111122 
NDBC,ioos:station:wmo:42056:1,2017-08-08T14:40:00Z,19.8020,-84.8570,29.7,1111122 
NDBC,ioos:station:wmo:42056:1,2017-08-08T15:40:00Z,19.8020,-84.8570,29.7,1111122 
NDBC,ioos:station:wmo:42056:1,2017-08-08T16:40:00Z,19.8020,-84.8570,29.7,1111122 
NDBC,ioos:station:wmo:42056:1,2017-08-08T17:40:00Z,19.8020,-84.8570,29.6,1111122 
NDBC,ioos:station:wmo:42056:1,2017-08-08T18:40:00Z,19.8020,-84.8570,29.7,1111122 
NDBC,ioos:station:wmo:42056:1,2017-08-08T19:40:00Z,19.8020,-84.8570,29.6,1111122 
NDBC,ioos:station:wmo:42056:1,2017-08-08T20:40:00Z,19.8020,-84.8570,29.6,1111122 
NDBC,ioos:station:wmo:42056:1,2017-08-08T21:40:00Z,19.8020,-84.8570,29.6,1111122 
NDBC,ioos:station:wmo:42056:1,2017-08-08T22:50:00Z,19.8020,-84.8570,29.4,1111122 
NDBC,ioos:station:wmo:42056:1,2017-08-08T23:40:00Z,19.8020,-84.8570,29.4,1111122 
NDBC,ioos:station:wmo:42056:1,2017-08-09T00:40:00Z,19.8020,-84.8570,29.4,1111122 
NDBC,ioos:station:wmo:42056:1,2017-08-09T01:40:00Z,19.8020,-84.8570,29.5,1111122 
NDBC,ioos:station:wmo:42056:1,2017-08-09T02:40:00Z,19.8020,-84.8570,29.6,1111122 
NDBC,ioos:station:wmo:42056:1,2017-08-09T03:40:00Z,19.8020,-84.8570,29.5,1111122 
NDBC,ioos:station:wmo:42056:1,2017-08-09T04:40:00Z,19.8020,-84.8570,29.5,1111122 
NDBC,ioos:station:wmo:42056:1,2017-08-09T05:40:00Z,19.8020,-84.8570,29.5,1111122 
NDBC,ioos:station:wmo:42056:1,2017-08-09T06:40:00Z,19.8020,-84.8570,29.4,1111122 
NDBC,ioos:station:wmo:42056:1,2017-08-09T07:40:00Z,19.8020,-84.8570,29.5,1111122 
NDBC,ioos:station:wmo:42056:1,2017-08-09T08:40:00Z,19.8020,-84.8570,29.4,1111122 
NDBC,ioos:station:wmo:42056:1,2017-08-09T09:40:00Z,19.8020,-84.8570,29.3,1111122 
NDBC,ioos:station:wmo:42056:1,2017-08-09T10:40:00Z,19.8020,-84.8570,29.3,1111122 
NDBC,ioos:station:wmo:42056:1,2017-08-09T11:40:00Z,19.8020,-84.8570,29.1,1111122 
NDBC,ioos:station:wmo:42056:1,2017-08-09T12:30:00Z,19.8020,-84.8570,29.3,1111122 
NDBC,ioos:station:wmo:42056:1,2017-08-09T13:40:00Z,19.8020,-84.8570,29.3,1111122 
NDBC,ioos:station:wmo:42056:1,2017-08-09T14:30:00Z,19.8020,-84.8570,29.6,1111122 
NDBC,ioos:station:wmo:42056:1,2017-08-09T15:40:00Z,19.8020,-84.8570,28.9,1111122 
NDBC,ioos:station:wmo:42056:1,2017-08-09T16:40:00Z,19.8020,-84.8570,29.2,1111122 
NDBC,ioos:station:wmo:42056:1,2017-08-09T23:40:00Z,19.8020,-84.8570,29.8,1111122 
NDBC,ioos:station:wmo:42056:1,2017-08-10T00:40:00Z,19.8020,-84.8570,29.7,1111122 
NDBC,ioos:station:wmo:42056:1,2017-08-10T01:20:00Z,19.8020,-84.8570,29.7,1111122 
NDBC,ioos:station:wmo:42056:1,2017-08-10T02:40:00Z,19.8020,-84.8570,29.5,1111122 
NDBC,ioos:station:wmo:42056:1,2017-08-10T03:40:00Z,19.8020,-84.8570,29.4,1111122 
NDBC,ioos:station:wmo:42056:1,2017-08-10T04:40:00Z,19.8020,-84.8570,29.5,1111122 
NDBC,ioos:station:wmo:42056:1,2017-08-10T05:40:00Z,19.8020,-84.8570,29.5,1111122 
NDBC,ioos:station:wmo:42056:1,2017-08-10T06:50:00Z,19.8020,-84.8570,29.4,1111122 
NDBC,ioos:station:wmo:42056:1,2017-08-10T07:40:00Z,19.8020,-84.8570,29.4,1111122 
NDBC,ioos:station:wmo:42056:1,2017-08-10T08:40:00Z,19.8020,-84.8570,29.2,1111122 
NDBC,ioos:station:wmo:42056:1,2017-08-10T09:20:00Z,19.8020,-84.8570,29.2,1111122 
NDBC,ioos:station:wmo:42056:1,2017-08-10T10:40:00Z,19.8020,-84.8570,29.2,1111122 
NDBC,ioos:station:wmo:42056:1,2017-08-10T11:40:00Z,19.8020,-84.8570,29.2,1111122 
NDBC,ioos:station:wmo:42056:1,2017-08-10T12:50:00Z,19.8020,-84.8570,29.5,1111122 
NDBC,ioos:station:wmo:42056:1,2017-08-10T13:20:00Z,19.8020,-84.8570,29.5,1111122 
NDBC,ioos:station:wmo:42056:1,2017-08-10T14:40:00Z,19.8020,-84.8570,28.3,1111122 
NDBC,ioos:station:wmo:42056:1,2017-08-10T15:40:00Z,19.8020,-84.8570,28.6,1111122 
NDBC,ioos:station:wmo:42056:1,2017-08-10T16:40:00Z,19.8020,-84.8570,29.0,1111122 
NDBC,ioos:station:wmo:42056:1,2017-08-10T17:40:00Z,19.8020,-84.8570,29.2,1111122 
NDBC,ioos:station:wmo:42056:1,2017-08-10T18:40:00Z,19.8020,-84.8570,28.8,1111122 
NDBC,ioos:station:wmo:42056:1,2017-08-10T19:50:00Z,19.8020,-84.8570,29.0,1111122 
NDBC,ioos:station:wmo:42056:1,2017-08-10T20:40:00Z,19.8020,-84.8570,28.6,1111122 
NDBC,ioos:station:wmo:42056:1,2017-08-10T21:40:00Z,19.8020,-84.8570,28.4,1111122 
NDBC,ioos:station:wmo:42056:1,2017-08-10T22:40:00Z,19.8020,-84.8570,28.6,1111122 
NDBC,ioos:station:wmo:42056:1,2017-08-10T23:40:00Z,19.8020,-84.8570,28.2,1111122 
NDBC,ioos:station:wmo:42056:1,2017-08-11T00:40:00Z,19.8020,-84.8570,28.9,1111122 
NDBC,ioos:station:wmo:42056:1,2017-08-11T01:20:00Z,19.8020,-84.8570,29.3,1111122 
NDBC,ioos:station:wmo:42056:1,2017-08-11T02:40:00Z,19.8020,-84.8570,29.0,1111122 
NDBC,ioos:station:wmo:42056:1,2017-08-11T03:40:00Z,19.8020,-84.8570,29.8,1111122 
NDBC,ioos:station:wmo:42056:1,2017-08-11T04:40:00Z,19.8020,-84.8570,29.6,1111122 
NDBC,ioos:station:wmo:42056:1,2017-08-11T05:50:00Z,19.8020,-84.8570,29.6,1111122 
NDBC,ioos:station:wmo:42056:1,2017-08-11T06:40:00Z,19.8020,-84.8570,29.4,1111122 
NDBC,ioos:station:wmo:42056:1,2017-08-11T07:40:00Z,19.8020,-84.8570,29.4,1111122 
NDBC,ioos:station:wmo:42056:1,2017-08-11T08:40:00Z,19.8020,-84.8570,29.3,1111122 
NDBC,ioos:station:wmo:42056:1,2017-08-11T09:40:00Z,19.8020,-84.8570,29.2,1111122 
NDBC,ioos:station:wmo:42056:1,2017-08-11T10:40:00Z,19.8020,-84.8570,29.2,1111122 
NDBC,ioos:station:wmo:42056:1,2017-08-11T11:40:00Z,19.8020,-84.8570,29.3,1111122 
NDBC,ioos:station:wmo:42056:1,2017-08-11T12:40:00Z,19.8020,-84.8570,29.4,1111122 
NDBC,ioos:station:wmo:42056:1,2017-08-11T13:40:00Z,19.8020,-84.8570,29.5,1111122 
NDBC,ioos:station:wmo:42056:1,2017-08-11T14:40:00Z,19.8020,-84.8570,29.5,1111122 
NDBC,ioos:station:wmo:42056:1,2017-08-11T15:40:00Z,19.8020,-84.8570,29.6,1111122 
NDBC,ioos:station:wmo:42056:1,2017-08-11T16:40:00Z,19.8020,-84.8570,29.7,1111122 
NDBC,ioos:station:wmo:42056:1,2017-08-11T17:30:00Z,19.8020,-84.8570,29.7,1111122 
NDBC,ioos:station:wmo:42056:1,2017-08-11T17:50:00Z,19.8020,-84.8570,29.7,1111122 
NDBC,ioos:station:wmo:42056:1,2017-08-11T19:10:00Z,19.8020,-84.8570,29.7,1111122 
NDBC,ioos:station:wmo:42056:1,2017-08-11T20:40:00Z,19.8020,-84.8570,29.7,1111122 
NDBC,ioos:station:wmo:42056:1,2017-08-11T21:50:00Z,19.8020,-84.8570,29.7,1111122 
NDBC,ioos:station:wmo:42056:1,2017-08-11T22:40:00Z,19.8020,-84.8570,29.7,1111122 
NDBC,ioos:station:wmo:42056:1,2017-08-11T23:40:00Z,19.8020,-84.8570,29.7,1111122 
NDBC,ioos:station:wmo:42056:1,2017-08-12T00:40:00Z,19.8020,-84.8570,29.7,1111122 
NDBC,ioos:station:wmo:42056:1,2017-08-12T01:40:00Z,19.8020,-84.8570,29.6,1111122 
NDBC,ioos:station:wmo:42056:1,2017-08-12T02:50:00Z,19.8020,-84.8570,29.6,1111122 
NDBC,ioos:station:wmo:42056:1,2017-08-12T03:40:00Z,19.8020,-84.8570,29.5,1111122 
NDBC,ioos:station:wmo:42056:1,2017-08-12T04:50:00Z,19.8020,-84.8570,29.5,1111122 
NDBC,ioos:station:wmo:42056:1,2017-08-12T05:40:00Z,19.8020,-84.8570,29.5,1111122 
NDBC,ioos:station:wmo:42056:1,2017-08-12T06:40:00Z,19.8020,-84.8570,29.4,1111122 
NDBC,ioos:station:wmo:42056:1,2017-08-12T07:40:00Z,19.8020,-84.8570,29.4,1111122 
NDBC,ioos:station:wmo:42056:1,2017-08-12T08:40:00Z,19.8020,-84.8570,29.4,1111122 
NDBC,ioos:station:wmo:42056:1,2017-08-12T09:40:00Z,19.8020,-84.8570,29.4,1111122 
NDBC,ioos:station:wmo:42056:1,2017-08-12T10:40:00Z,19.8020,-84.8570,29.4,1111122 
NDBC,ioos:station:wmo:42056:1,2017-08-12T11:40:00Z,19.8020,-84.8570,29.3,1111122 
NDBC,ioos:station:wmo:42056:1,2017-08-12T12:50:00Z,19.8020,-84.8570,29.5,1111122 
NDBC,ioos:station:wmo:42056:1,2017-08-12T13:10:00Z,19.8020,-84.8570,29.5,1111122 
NDBC,ioos:station:wmo:42056:1,2017-08-12T14:40:00Z,19.8020,-84.8570,29.7,1111122 
NDBC,ioos:station:wmo:42056:1,2017-08-12T15:40:00Z,19.8020,-84.8570,29.8,1111122 
NDBC,ioos:station:wmo:42056:1,2017-08-12T16:40:00Z,19.8020,-84.8570,29.9,1111122 
NDBC,ioos:station:wmo:42056:1,2017-08-12T17:40:00Z,19.8020,-84.8570,29.9,1111122 
NDBC,ioos:station:wmo:42056:1,2017-08-12T18:40:00Z,19.8020,-84.8570,30.0,1111122 
NDBC,ioos:station:wmo:42056:1,2017-08-12T19:40:00Z,19.8020,-84.8570,29.8,1111122 
NDBC,ioos:station:wmo:42056:1,2017-08-12T20:40:00Z,19.8020,-84.8570,30.0,1111122 
NDBC,ioos:station:wmo:42056:1,2017-08-12T21:40:00Z,19.8020,-84.8570,30.0,1111122 
NDBC,ioos:station:wmo:42056:1,2017-08-12T22:40:00Z,19.8020,-84.8570,29.6,1111122 
NDBC,ioos:station:wmo:42056:1,2017-08-12T23:40:00Z,19.8020,-84.8570,29.9,1111122 
NDBC,ioos:station:wmo:42056:1,2017-08-13T00:40:00Z,19.8020,-84.8570,29.7,1111122 
NDBC,ioos:station:wmo:42056:1,2017-08-13T01:40:00Z,19.8020,-84.8570,29.8,1111122 
NDBC,ioos:station:wmo:42056:1,2017-08-13T02:40:00Z,19.8020,-84.8570,29.8,1111122 
NDBC,ioos:station:wmo:42056:1,2017-08-13T03:40:00Z,19.8020,-84.8570,29.3,1111122 
NDBC,ioos:station:wmo:42056:1,2017-08-13T04:40:00Z,19.8020,-84.8570,29.8,1111122 
NDBC,ioos:station:wmo:42056:1,2017-08-13T05:40:00Z,19.8020,-84.8570,29.6,1111122 
NDBC,ioos:station:wmo:42056:1,2017-08-13T06:40:00Z,19.8020,-84.8570,29.5,1111122 
NDBC,ioos:station:wmo:42056:1,2017-08-13T07:50:00Z,19.8020,-84.8570,29.4,1111122 
NDBC,ioos:station:wmo:42056:1,2017-08-13T08:40:00Z,19.8020,-84.8570,29.4,1111122 
NDBC,ioos:station:wmo:42056:1,2017-08-13T09:40:00Z,19.8020,-84.8570,29.3,1111122 
NDBC,ioos:station:wmo:42056:1,2017-08-13T10:40:00Z,19.8020,-84.8570,29.3,1111122 
NDBC,ioos:station:wmo:42056:1,2017-08-13T11:50:00Z,19.8020,-84.8570,29.2,1111122 
NDBC,ioos:station:wmo:42056:1,2017-08-13T12:40:00Z,19.8020,-84.8570,29.4,1111122 
NDBC,ioos:station:wmo:42056:1,2017-08-13T13:40:00Z,19.8020,-84.8570,29.5,1111122 
NDBC,ioos:station:wmo:42056:1,2017-08-13T14:40:00Z,19.8020,-84.8570,29.5,1111122 
NDBC,ioos:station:wmo:42056:1,2017-08-13T15:40:00Z,19.8020,-84.8570,29.7,1111122 
NDBC,ioos:station:wmo:42056:1,2017-08-13T16:50:00Z,19.8020,-84.8570,29.8,1111122 
NDBC,ioos:station:wmo:42056:1,2017-08-13T17:50:00Z,19.8020,-84.8570,29.6,1111122 
NDBC,ioos:station:wmo:42056:1,2017-08-13T18:40:00Z,19.8020,-84.8570,29.7,1111122 
NDBC,ioos:station:wmo:42056:1,2017-08-13T19:40:00Z,19.8020,-84.8570,29.7,1111122 
NDBC,ioos:station:wmo:42056:1,2017-08-13T20:40:00Z,19.8020,-84.8570,29.8,1111122 
NDBC,ioos:station:wmo:42056:1,2017-08-13T21:50:00Z,19.8020,-84.8570,29.7,1111122 
NDBC,ioos:station:wmo:42056:1,2017-08-13T22:40:00Z,19.8020,-84.8570,29.7,1111122 
NDBC,ioos:station:wmo:42056:1,2017-08-13T23:40:00Z,19.8020,-84.8570,29.6,1111122 
NDBC,ioos:station:wmo:42056:1,2017-08-14T00:40:00Z,19.8020,-84.8570,29.6,1111122 
NDBC,ioos:station:wmo:42056:1,2017-08-14T01:20:00Z,19.8020,-84.8570,29.6,1111122 
NDBC,ioos:station:wmo:42056:1,2017-08-14T02:40:00Z,19.8020,-84.8570,29.5,1111122 
NDBC,ioos:station:wmo:42056:1,2017-08-14T03:40:00Z,19.8020,-84.8570,29.6,1111122 
NDBC,ioos:station:wmo:42056:1,2017-08-14T04:40:00Z,19.8020,-84.8570,28.8,1111122 
NDBC,ioos:station:wmo:42056:1,2017-08-14T05:40:00Z,19.8020,-84.8570,29.2,1111122 
NDBC,ioos:station:wmo:42056:1,2017-08-14T06:50:00Z,19.8020,-84.8570,29.2,1111122 
NDBC,ioos:station:wmo:42056:1,2017-08-14T07:50:00Z,19.8020,-84.8570,29.0,1111122 
NDBC,ioos:station:wmo:42056:1,2017-08-14T08:40:00Z,19.8020,-84.8570,29.1,1111122 
NDBC,ioos:station:wmo:42056:1,2017-08-14T09:40:00Z,19.8020,-84.8570,29.2,1111122 
NDBC,ioos:station:wmo:42056:1,2017-08-14T10:40:00Z,19.8020,-84.8570,29.1,1111122 
NDBC,ioos:station:wmo:42056:1,2017-08-14T11:40:00Z,19.8020,-84.8570,29.3,1111122 
NDBC,ioos:station:wmo:42056:1,2017-08-14T12:40:00Z,19.8020,-84.8570,29.5,1111122 
NDBC,ioos:station:wmo:42056:1,2017-08-14T13:40:00Z,19.8020,-84.8570,29.5,1111122 
NDBC,ioos:station:wmo:42056:1,2017-08-14T14:40:00Z,19.8020,-84.8570,29.5,1111122 
NDBC,ioos:station:wmo:42056:1,2017-08-14T15:50:00Z,19.8020,-84.8570,29.7,1111122 
NDBC,ioos:station:wmo:42056:1,2017-08-14T17:40:00Z,19.8020,-84.8570,29.8,1111122 
NDBC,ioos:station:wmo:42056:1,2017-08-14T18:40:00Z,19.8020,-84.8570,29.9,1111122 
NDBC,ioos:station:wmo:42056:1,2017-08-14T19:40:00Z,19.8020,-84.8570,29.7,1111122 
NDBC,ioos:station:wmo:42056:1,2017-08-14T20:40:00Z,19.8020,-84.8570,29.7,1111122 
NDBC,ioos:station:wmo:42056:1,2017-08-14T21:50:00Z,19.8020,-84.8570,29.7,1111122 
NDBC,ioos:station:wmo:42056:1,2017-08-14T22:40:00Z,19.8020,-84.8570,29.7,1111122 
NDBC,ioos:station:wmo:42056:1,2017-08-14T23:40:00Z,19.8020,-84.8570,29.7,1111122 
NDBC,ioos:station:wmo:42056:1,2017-08-15T00:40:00Z,19.8020,-84.8570,29.4,1111122 
NDBC,ioos:station:wmo:42056:1,2017-08-15T01:50:00Z,19.8020,-84.8570,29.8,1111122 
NDBC,ioos:station:wmo:42056:1,2017-08-15T02:40:00Z,19.8020,-84.8570,29.8,1111122 
NDBC,ioos:station:wmo:42056:1,2017-08-15T03:40:00Z,19.8020,-84.8570,29.9,1111122 